Regional Weather Roundup
Issued by NWS Jackson, KY

Home | Current Version | Previous Version | Text Only | Print | Product List | Glossary On
Versions: 1 2 3 4 5 6 7 8 9 10 11 12 13 14 15 16 17 18 19 20 21 22 23 24 25 26 27 28 29 30 31 32 33 34 35 36 37 38 39 40 41 42 43 44 45 46 47 48 49 50
000
ASUS43 KJKL 241910
RWRJKL

EAST KENTUCKY HOURLY WEATHER ROUNDUP
NATIONAL WEATHER SERVICE JACKSON KY
300 PM EDT FRI MAR 24 2017

NOTE: "FAIR" INDICATES FEW OR NO CLOUDS BELOW 12,000 FEET WITH
NO SIGNIFICANT WEATHER AND/OR OBSTRUCTIONS TO VISIBILITY.

* THESE REPORTS ARE NOT UNDER NWS QUALITY CONTROL AND MAY NOT
  REPORT WEATHER SUCH AS PRECIPITATION AND FOG.

KYZ079-080-083-085-087-088-110-112-115-119-120-242000
...EASTERN KENTUCKY...

CITY           SKY/WX    TMP DP  RH WIND       PRES   REMARKS
JACKSON        CLOUDY    74  49  41 VRB3      30.26F
LONDON         SUNNY     72  46  39 SW14G23   30.27F
SOMERSET*      SUNNY     72  46  40 S14G20    30.26F
MONTICELLO*    CLOUDY    73  52  47 S9        30.27F
WILLIAMSBURG*  PTCLDY    72  48  43 S16G22    30.29F
MIDDLESBORO*   SUNNY     72  48  43 W6G16     30.31F
HARLAN APT*    CLOUDY    70  43  37 S7G18     30.31F
PIKE CO APT*   CLOUDY    70  49  46 S8        30.27F
BIG SANDY APT* CLOUDY    72  50  44 W10       30.26F
MOREHEAD APT*  PTCLDY    73  50  43 SW15      30.23F
ASHLAND*       CLOUDY    59  54  82 W8        30.19F
$$

KYZ035-036-041-042-044-050-067-078-099-242000
...CENTRAL KENTUCKY...

CITY           SKY/WX    TMP DP  RH WIND       PRES   REMARKS
MT STERLING*   SUNNY     73  54  49 SW13G23   30.23F
FLEMING/MASON* PTSUNNY   72  53  51 SW20G25   30.20F
DANVILLE*      SUNNY     73  52  46 SW18G26   30.23F
LEXINGTON      MOSUNNY   77  51  40 SW17G30   30.20F
FRANKFORT      MOSUNNY   77  51  40 S20G25    30.17F
LOUISVILLE     MOSUNNY   79  50  36 SW20G29   30.15F
LEBANON*         N/A     75  54  46 S20G30    30.21F
GLASGOW*       CLOUDY    73  52  46 S17G24    30.22F
BOWLING GREEN  PTSUNNY   74  54  49 S16G28    30.21F
$$

KYZ091>093-OHZ055-061-077-WVZ005-015-034-035-042-242000
...SOUTHERN OHIO/WEST VIRGINIA...

CITY           SKY/WX    TMP DP  RH WIND       PRES   REMARKS
COVINGTON      PTSUNNY   72  52  49 S16G24    30.16F
COLUMBUS       MOSUNNY   72  52  49 SW16      30.13F
DAYTON         MOSUNNY   70  52  52 SW22G32   30.11F
WILMINGTON     MOSUNNY   71  54  54 SW17      30.15F
HUNTINGTON     CLOUDY    73  49  42 SW10G22   30.21F
CHARLESTON     MOSUNNY   76  48  37 SW12G18   30.21F
PINEVILLE*     CLOUDY    70  39  32 MISG      30.34F
BECKLEY        CLOUDY    68  46  45 W13       30.29F
BLUEFIELD      CLOUDY    63  44  50 W12       30.33F
LOGAN CO APT*    N/A     73  46  38 CALM      30.26F
$$

VAZ002-007-008-TNZ017-027-036-066-071-242000
...SOUTHWEST VIRGINIA/EAST TENNESSEE...

CITY           SKY/WX    TMP DP  RH WIND       PRES   REMARKS
WISE*          CLOUDY    66  43  42 W10G18    30.35F
JONESVILLE*      N/A     72  46  40 SW13      30.34F
ABINGDON*      PTSUNNY   71  46  39 W9        30.34F
BRISTOL        CLOUDY    71  46  40 SW10      30.32F
MORRISTOWN*    CLEAR     70  46  43 N7        30.32F
SEVIERVILLE*   MOCLDY    72  45  37 CALM      30.31F
KNOXVILLE      CLOUDY    69  47  45 SW15      30.33F
LAFOLLETTE*    MOCLDY    72  48  43 SW13G18   30.34F
OAK RIDGE      PTSUNNY   70  47  43 SW10G18   30.34F
CROSSVILLE     SUNNY     66  48  52 S9G22     30.32F
NASHVILLE      CLOUDY    74  53  48 S14G23    30.24F
$$

...KEY TO REMARKS...
VSB - VISIBILITY IN MILES
WCI - WIND CHILL INDEX
HX  - HEAT INDEX

$$



USA.gov is the U.S. government's official web portal to all federal, state and local government web resources and services.